Location: Bailleul
(50.3375°N, 2.8513°E)
Time: 14:42:45
(UTC+00:00)

Cosmos 2233 Rocket - Pass Details

Date: 16 June 2021
Orbit: 954 x 990 km, 82.9° (Epoch: 30 July)

Event Time Altitude Azimuth Distance (km) Brightness Sun altitude
Rises 21:39:33 0° 352° (N) 3,644 8.4 -10.9°
Reaches altitude 10° 21:42:07 10° 357° (N) 2,695 7.4 -11.1°
Maximum altitude 21:48:11 57° 76° (ENE) 1,116 4.2 -11.6°
Enters shadow 21:53:08 16° 151° (SSE) 2,298 5.3 -11.9°
